カタログに戻る

ONEWEB-0008

運用中通信PO
NORAD 44059·PAYLOAD·🇬🇧 United Kingdom

打ち上げ Feb 27, 2019 から Guiana Space Centre

Loading…

次のパス (今後24時間)

TLE

最新Source: CelesTrak SupGP

元期: Sep 14, 2026, 23:40 UTC

1 44059C 19010C   26257.98663611 -.00004519  00000+0 -11836-1 0  2572
2 44059  87.9150 210.9456 0001942  91.9382 298.4357 13.16597985    12

AllMySatでONEWEB-0008をリアルタイム追跡

Download on the App Store